Аэропорт
Душанбе (UTDD)

 UTDD / DYU
ЗЦ Центральная Азия
Душанбе (UTDD)
Душанбе (UTDD)
 38.54330, 68.82500  / 2575 ft

 UTDD 251200Z 24004MPS 210V280 9999 NSC 34/04 Q1008 R09/D NOSIG RMK QFE688/0918
 TAF UTDD 250600Z 2507/2519 VRB02MPS 6000 FEW066CB SCT130 TEMPO 2507/2519 27006MPS
UTDD charts eff 02.02.17
показать схемы
Название сценария Тип сценария Flight Simulator 9 Flight Simulator X Prepar3D v2 Prepar3D v3 Prepar3D v4 xPlane
Recommended scenery for FS9 бесплатный
Recommended scenery for FSX бесплатный
Recommended scenery for xPlane бесплатный


2019 © VATRUS division (Privacy Policy)